{"data":{"norad_id":63718,"intl_designator":"2025-087X","name":"STARLINK-33641","alt_names":[],"object_type":"PAYLOAD","status":"ACTIVE","operator":null,"country":"US","launch_date":"2025-04-28","launch_site_code":"AFWTR","launch_vehicle":null,"mission":null,"orbit_class":"UNKNOWN","rcs_meters":null,"size_class":null,"mass_kg":null,"dimensions":null,"purposes":["comms"],"wikipedia_slug":null,"has_3d_model":false,"image_url":null,"decayed_at":null,"tle_current":{"epoch":"2026-05-24T22:01:39.575424Z","epoch_age_seconds":82170,"freshness":"FRESH","line1":"1 63718U 25087X   26144.91781916 -.00009062  00000+0 -28050-3 0  9992","line2":"2 63718  53.1570 225.2550 0001012  73.7872 286.3241 15.31713328 60878","mean_motion":15.31713328,"eccentricity":0.0001012,"inclination_deg":53.157,"raan_deg":225.255,"arg_perigee_deg":73.7872,"mean_anomaly_deg":286.3241,"bstar":-0.0002805,"rev_number":6087,"period_min":94.012369917826,"perigee_km":470.00716310801,"apogee_km":471.39336777053,"semimajor_km":6848.8372654393,"source":"CELESTRAK","updated_at":"2026-05-25T13:38:20.101374Z"}}}